Location: Favalello
(42.2939°N, 9.2706°E)
Time: 14:14:40
(UTC+00:00)

RESURS DK-1 - Pass Details

Date: 06 December 2019
Orbit: 554 x 564 km, 69.9° (Epoch: 19 January)

Event Time Altitude Azimuth Distance (km) Brightness Sun altitude
Rises 16:32:06 0° 189° (S) 2,717 6.4 -7.7°
Reaches altitude 10° 16:34:20 10° 184° (S) 1,828 5.4 -8.1°
Maximum altitude 16:38:15 46° 110° (ESE) 754 2.7 -8.7°
Drops below altitude 10° 16:42:11 10° 38° (NE) 1,845 4.5 -9.4°
Enters shadow 16:42:27 - 37° (NE) 1,948 4.6 -9.4°
